Terug naar catalogus

STARLINK-31358

ActiefCommunicatieVLEO
NORAD 58977·PAYLOAD·🇺🇸 United States

Gelanceerd Feb 15, 2024 vanaf Vandenberg Space Force Base

Loading…

Volgende Passages (komende 24 uur)

TLE

VersSource: CelesTrak SupGP

Epoch: Sep 15, 2026, 03:23 UTC

1 58977C 24031N   26258.14145833  .00050294  00000+0  14849-2 0  2583
2 58977  53.1566 135.0484 0001217  82.8153 232.5386 15.34386565    13

Volg STARLINK-31358 in realtime met AllMySat

Download on the App Store